SL-8 DEB, 3038

Orbit data source: Space-Track

SL-8 DEB, 3038 is space debris in LEO originally from a launch on Mon, 15 Mar 1965 UTC launched from the Tyuratam Missile And Space Complex (TTMTR). Debris objects in space refer to the collection of defunct objects orbiting the Earth. Examples of debris include non-operational satellites, rocket bodies, and fragments generated from explosions, collisions, or faulty payload assembly.

Loading next visibility...
Identifier
3038, 1965-020EN
Orbit
LEO
Last TLE update
14 hours ago
Origin
Manufacturer
Unknown
Mission
Spacecraft
Bus & Motor
Unknown
Mass
Unknown
Launch date (UTC)
1965-03-15 (60 years ago)
Launch vehicle
Unknown
Launch site
Tyuratam Missile And Space Complex (TTMTR)
Object type
Payload
Rocket body
Debris
Shape & HBR
Unknown
Radar Cross Section
Medium (>0.1 m² and <1 m²)

Expand to show TLE details & history

TLE from 14 hours ago
0 SL-8 DEB
1 03038U 65020EN  25181.67097537  .00001151  00000-0  30284-3 0  9996
2 03038  56.1601 169.6796 0404261 239.2917 116.7659 14.16283233175909
Epoch: 2025-06-30T16:06Z
TLE epoch observation values (Epoch: 2025-06-30T16:06:12.271Z)
Latitude
-0.00002°
Longitude
9.15102°
Altitude
979.621 km
Speed
7.291 km/s
True Right ascension
11h 18m 43s
True Declination
0° 00' 00"
Sunlit
Object was in daylight at epoch
Visualization orbit readout
Latitude
29.71626°
Longitude
164.6286°
Altitude
863.184 km
Speed
7.412 km/s
Apparent Right ascension
00h 56m 38s
Apparent Declination
-5° 21' 40"
Sunlit
Object is in daylight
Visualization observer readout
Local Sidereal Time
18:00:01
Azimuth
84.994° E
Elevation
-14.282°
Doppler factor
1
Orbital elements
Apogee altitude
1,129.451 km
Perigee altitude
546.032 km
Semi-major axis
7,215.878 km
Eccentricity
0.04043
Inclination
56.1601°
RAAN
169.6796°
Arg. of periapsis
239.2917°
True anomaly
Unknown
Mean anomaly
116.7659°
Eccentric anomaly
Unknown
Mean motion
3.54086 °/min
Orbital period
101.67 mins
BSTAR
0.00030284
Loading maneuver chart data...
Loading SW <> Apogee altitude chart data...
Loading historical data...
Loading historical data...
Loading historical data...
Loading historical data...
Loading historical data...
Loading historical data...
Loading historical data...

SL-8 DEB Visibility forecast

Observer location: undefined°, undefined°

Span
Click to sort rows by Start time (UTC) header in descending order
Start Az.
Max El. time (UTC)
Max El. Az.
Max El.
End time (UTC)
End Az.
11 mins2025-07-01 07:50:14.233Z324.081° NNW2025-07-01 07:56:14.233Z28.182° NE31.501°2025-07-01 08:01:14.233Z93.449° ESE
10 mins2025-07-01 09:37:14.233Z307.244° NW2025-07-01 09:42:14.233Z245.702° WSW40.836°2025-07-01 09:47:14.233Z154.864° SSE
11 mins2025-07-02 00:25:14.233Z183.192° SSW2025-07-02 00:30:14.233Z121.201° SE32.773°2025-07-02 00:36:14.233Z59.47° ENE
12 mins2025-07-02 02:10:14.233Z246.45° WSW2025-07-02 02:16:14.233Z330.851° NNW40.145°2025-07-02 02:22:14.233Z38.261° NE
9 mins2025-07-02 03:59:14.233Z300.458° NW2025-07-02 04:03:14.233Z341.845° N23.161°2025-07-02 04:08:14.233Z31.837° NE
8 mins2025-07-02 05:48:14.233Z332.878° NNW2025-07-02 05:51:14.233Z3.177° NNE19.931°2025-07-02 05:56:14.233Z52.634° ENE
|